Location: Kawakawa
(35.3830°S, 174.0670°E)
Time: 07:32:59
(UTC+13:00)

Explorer 7 - Pass Details

Date: 16 December 2019
Orbit: 485 x 679 km, 50.3° (Epoch: 29 January)

Event Time Altitude Azimuth Distance (km) Brightness Sun altitude
Rises 10:06:00 0° 233° (SW) 2,587 9.9 46.7°
Reaches altitude 10° 10:08:10 10° 236° (SW) 1,712 9.1 47.1°
Maximum altitude 10:11:59 63° 317° (NW) 576 7.4 47.9°
Drops below altitude 10° 10:15:57 10° 38° (NE) 1,769 10.0 48.7°
Sets 10:18:13 0° 41° (NE) 2,684 10.7 49.2°
